• In Belarus
  • List of Countries
  • For 7 days
  • Water Temperature
  • Satellite Maps
  • Weather Map
  • Weather Widgets
  • user-avatar
    Login

    Hourly Weather Kandi

    Today, 18 June, Tuesday

    Time Temperature Precipitation Wind Pressure Humidity
    00:00 +30°C° 0 mm 2 mps 738 mmHg 64%
    01:00 +30°C° 0 mm 2 mps 738 mmHg 68%
    02:00 +29°C° 0 mm 3 mps 738 mmHg 71%
    03:00 +29°C° 0 mm 3 mps 737 mmHg 74%
    04:00 +28°C° 0 mm 3 mps 738 mmHg 75%
    05:00 +28°C° 0 mm 3 mps 738 mmHg 76%
    06:00 +28°C° 0 mm 3 mps 738 mmHg 77%
    07:00 +30°C° 0 mm 3 mps 738 mmHg 71%
    08:00 +31°C° 0 mm 3 mps 739 mmHg 65%
    09:00 +34°C° 0 mm 2 mps 739 mmHg 59%
    10:00 +36°C° 0 mm 2 mps 739 mmHg 50%
    11:00 +38°C° 0 mm 2 mps 738 mmHg 42%
    12:00 +41°C° 0 mm 2 mps 738 mmHg 33%
    13:00 +41°C° 0 mm 2 mps 737 mmHg 31%
    14:00 +42°C° 0 mm 2 mps 736 mmHg 28%
    15:00 +42°C° 0 mm 2 mps 736 mmHg 26%
    16:00 +40°C° 0 mm 2 mps 736 mmHg 29%
    17:00 +39°C° 0 mm 2 mps 736 mmHg 32%
    18:00 +37°C° 0 mm 2 mps 736 mmHg 35%
    19:00 +36°C° 0 mm 2 mps 737 mmHg 39%
    20:00 +35°C° 0 mm 2 mps 737 mmHg 43%
    21:00 +34°C° 0 mm 2 mps 738 mmHg 48%
    22:00 +33°C° 0 mm 3 mps 738 mmHg 53%
    23:00 +31°C° 0 mm 3 mps 738 mmHg 58%

    Tomorrow, 19 June, Wednesday

    Time Temperature Precipitation Wind Pressure Humidity
    00:00 +31°C° 0 mm 3 mps 738 mmHg 63%
    01:00 +30°C° 0.5 mm 3 mps 738 mmHg 68%
    02:00 +29°C° 0.5 mm 3 mps 738 mmHg 72%
    03:00 +28°C° 0.5 mm 3 mps 738 mmHg 77%
    04:00 +28°C° 0 mm 3 mps 738 mmHg 78%
    05:00 +28°C° 0 mm 2 mps 737 mmHg 79%
    06:00 +28°C° 0 mm 2 mps 737 mmHg 80%
    07:00 +30°C° 0 mm 2 mps 738 mmHg 73%
    08:00 +31°C° 0 mm 3 mps 738 mmHg 65%
    09:00 +34°C° 0 mm 3 mps 739 mmHg 58%
    10:00 +36°C° 0 mm 3 mps 738 mmHg 50%
    11:00 +39°C° 0 mm 2 mps 738 mmHg 42%
    12:00 +41°C° 0 mm 2 mps 737 mmHg 34%
    13:00 +41°C° 0 mm 2 mps 737 mmHg 32%
    14:00 +42°C° 0 mm 1 mps 737 mmHg 29%
    15:00 +43°C° 0 mm 1 mps 736 mmHg 27%
    16:00 +41°C° 0 mm 1 mps 736 mmHg 31%
    17:00 +40°C° 0 mm 1 mps 736 mmHg 34%
    18:00 +37°C° 0 mm 1 mps 736 mmHg 38%
    19:00 +35°C° 1.2 mm 2 mps 737 mmHg 50%
    20:00 +32°C° 1.2 mm 2 mps 737 mmHg 62%
    21:00 +30°C° 1.2 mm 3 mps 737 mmHg 74%
    22:00 +29°C° 0.2 mm 2 mps 738 mmHg 76%
    23:00 +29°C° 0.2 mm 2 mps 738 mmHg 78%

    Day after tomorrow, 20 June, Thursday

    Time Temperature Precipitation Wind Pressure Humidity
    00:00 +28°C° 0.2 mm 2 mps 738 mmHg 79%
    01:00 +28°C° 0 mm 2 mps 737 mmHg 80%
    02:00 +28°C° 0 mm 2 mps 737 mmHg 80%
    03:00 +27°C° 0 mm 2 mps 737 mmHg 81%
    04:00 +27°C° 0 mm 2 mps 737 mmHg 81%
    05:00 +27°C° 0 mm 3 mps 737 mmHg 82%
    06:00 +27°C° 0 mm 3 mps 737 mmHg 82%
    07:00 +29°C° 0 mm 3 mps 738 mmHg 75%
    08:00 +31°C° 0 mm 3 mps 738 mmHg 67%
    09:00 +34°C° 0 mm 3 mps 739 mmHg 60%
    10:00 +35°C° 0 mm 3 mps 738 mmHg 55%
    11:00 +37°C° 0 mm 3 mps 738 mmHg 49%
    12:00 +39°C° 0 mm 3 mps 738 mmHg 44%
    13:00 +39°C° 0 mm 3 mps 737 mmHg 43%
    14:00 +39°C° 0 mm 3 mps 737 mmHg 42%
    15:00 +40°C° 0 mm 3 mps 736 mmHg 40%
    16:00 +38°C° 0.2 mm 3 mps 736 mmHg 46%
    17:00 +36°C° 0.2 mm 3 mps 736 mmHg 52%
    18:00 +35°C° 0.2 mm 3 mps 736 mmHg 58%
    19:00 +34°C° 0.4 mm 3 mps 737 mmHg 63%
    20:00 +31°C° 0.4 mm 3 mps 737 mmHg 69%
    21:00 +30°C° 0.4 mm 3 mps 738 mmHg 75%
    22:00 +30°C° 0.2 mm 3 mps 738 mmHg 75%
    23:00 +30°C° 0.2 mm 3 mps 738 mmHg 75%

    21 June, Friday

    Time Temperature Precipitation Wind Pressure Humidity
    00:00 +29°C° 0.2 mm 3 mps 738 mmHg 76%
    01:00 +29°C° 0.1 mm 3 mps 738 mmHg 78%
    02:00 +28°C° 0.1 mm 3 mps 738 mmHg 80%
    03:00 +28°C° 0.1 mm 3 mps 737 mmHg 82%
    04:00 +27°C° 2 mm 4 mps 738 mmHg 85%
    05:00 +27°C° 2 mm 4 mps 739 mmHg 88%
    06:00 +26°C° 2 mm 5 mps 739 mmHg 91%
    07:00 +25°C° 6.1 mm 4 mps 740 mmHg 91%
    08:00 +24°C° 6.1 mm 3 mps 740 mmHg 91%
    09:00 +22°C° 6.1 mm 3 mps 741 mmHg 91%
    10:00 +25°C° 0.3 mm 3 mps 740 mmHg 85%
    11:00 +26°C° 0.3 mm 3 mps 739 mmHg 79%
    12:00 +28°C° 0.3 mm 3 mps 738 mmHg 73%
    13:00 +29°C° 0 mm 3 mps 737 mmHg 68%
    14:00 +30°C° 0 mm 2 mps 737 mmHg 63%
    15:00 +31°C° 0 mm 2 mps 736 mmHg 57%
    16:00 +31°C° 0 mm 1 mps 736 mmHg 61%
    17:00 +30°C° 0 mm 1 mps 736 mmHg 64%
    18:00 +27°C° 0 mm 0 mps 736 mmHg 68%
    19:00 +27°C° 0 mm 0 mps 737 mmHg 70%
    20:00 +28°C° 0 mm 1 mps 737 mmHg 72%
    21:00 +27°C° 0 mm 1 mps 738 mmHg 74%
    22:00 +27°C° 0 mm 1 mps 738 mmHg 76%
    23:00 +27°C° 0 mm 1 mps 738 mmHg 77%

    22 June, Saturday

    Time Temperature Precipitation Wind Pressure Humidity
    00:00 +27°C° 0 mm 1 mps 738 mmHg 79%
    01:00 +26°C° 0 mm 1 mps 738 mmHg 81%
    02:00 +26°C° 0 mm 1 mps 738 mmHg 83%
    03:00 +26°C° 0 mm 1 mps 738 mmHg 85%
    04:00 +26°C° 0 mm 2 mps 738 mmHg 86%
    05:00 +26°C° 0 mm 2 mps 738 mmHg 87%
    06:00 +26°C° 0 mm 3 mps 738 mmHg 88%
    07:00 +28°C° 0 mm 2 mps 738 mmHg 81%
    08:00 +29°C° 0 mm 2 mps 739 mmHg 74%
    09:00 +31°C° 0 mm 2 mps 739 mmHg 67%
    10:00 +34°C° 0 mm 2 mps 739 mmHg 61%
    11:00 +35°C° 0 mm 2 mps 738 mmHg 55%
    12:00 +37°C° 0 mm 2 mps 738 mmHg 49%
    13:00 +37°C° 0 mm 2 mps 737 mmHg 48%
    14:00 +37°C° 0 mm 2 mps 737 mmHg 47%
    15:00 +38°C° 0 mm 2 mps 736 mmHg 46%
    16:00 +36°C° 0.2 mm 2 mps 736 mmHg 51%
    17:00 +35°C° 0.2 mm 2 mps 736 mmHg 57%
    18:00 +32°C° 0.2 mm 2 mps 736 mmHg 62%
    19:00 +31°C° 0.3 mm 2 mps 737 mmHg 69%
    20:00 +30°C° 0.3 mm 2 mps 737 mmHg 76%
    21:00 +29°C° 0.3 mm 2 mps 738 mmHg 82%
    22:00 +28°C° 0 mm 2 mps 738 mmHg 83%
    23:00 +28°C° 0 mm 2 mps 738 mmHg 84%

    23 June, Sunday

    Time Temperature Precipitation Wind Pressure Humidity
    00:00 +28°C° 0 mm 2 mps 738 mmHg 85%
    01:00 +27°C° 0 mm 2 mps 737 mmHg 86%
    02:00 +27°C° 0 mm 2 mps 737 mmHg 86%
    03:00 +27°C° 0 mm 2 mps 737 mmHg 87%
    04:00 +27°C° 0 mm 2 mps 737 mmHg 87%
    05:00 +27°C° 0 mm 2 mps 737 mmHg 88%
    06:00 +27°C° 0 mm 2 mps 738 mmHg 89%
    07:00 +28°C° 0 mm 2 mps 738 mmHg 81%
    08:00 +30°C° 0 mm 3 mps 738 mmHg 73%
    09:00 +33°C° 0 mm 3 mps 739 mmHg 65%
    10:00 +35°C° 0 mm 3 mps 738 mmHg 58%
    11:00 +36°C° 0 mm 3 mps 737 mmHg 51%
    12:00 +38°C° 0 mm 2 mps 737 mmHg 44%
    13:00 +39°C° 0 mm 2 mps 736 mmHg 41%
    14:00 +40°C° 0 mm 2 mps 735 mmHg 37%
    15:00 +40°C° 0 mm 1 mps 735 mmHg 33%
    16:00 +39°C° 0 mm 1 mps 735 mmHg 38%
    17:00 +36°C° 0 mm 1 mps 735 mmHg 43%
    18:00 +35°C° 0 mm 1 mps 735 mmHg 47%
    19:00 +33°C° 0.5 mm 1 mps 735 mmHg 55%
    20:00 +31°C° 0.5 mm 2 mps 736 mmHg 63%
    21:00 +30°C° 0.5 mm 3 mps 736 mmHg 70%
    22:00 +29°C° 0 mm 3 mps 736 mmHg 73%
    23:00 +29°C° 0 mm 3 mps 736 mmHg 77%
    Show more